CAPE
1 220 346 3 18 862 1256 1507 1615 1063 440 0 62 2 1 1 5 4 2 0 0 0 0 0 0 0 0 0 0 0 0 0 0 0 0 0 0 0 0 0 0 0 0
0 152 1108 604 250 916 990 1140 1214 722 0 0 0 1 1 1 1 0 0 0 0 0 0 0 0 0 0 0 0 0 0 0 0 0 0 0 0 0 0 0 0 0 0
0 0 556 1314 963 1050 756 716 532 40 0 0 0 0 1 1 0 0 0 0 0 0 0 0 0 0 0 0 0 0 0 0 0 0 0 0 0 0 0 0 0 1 0
0 0 24 1029 1255 903 753 145 0 0 0 0 0 0 0 0 0 0 0 0 0 0 0 0 0 0 0 0 0 0 0 0 0 0 0 0 0 0 0 0 0 1 0
0 0 0 282 935 221 0 0 0 0 0 0 0 0 0 0 0 0 0 0 0 0 1 0 0 0 0 0 0 0 0 0 0 0 0 0 0 2 3 4 7 4 1
0 0 0 161 344 15 0 0 0 0 2 0 0 4 2 0 0 0 0 0 0 0 0 1 1 0 0 0 0 0 0 0 1 2 0 1 1 6 9 10 10 16 10
0 0 0 0 199 13 0 0 0 0 0 3 4 2 2 5 0 0 0 0 0 0 0 0 3 1 0 1 0 0 0 0 0 1 2 2 6 6 10 6 11 14 13
0 0 0 0 18 0 3 2 1 0 0 0 3 4 3 2 0 0 0 0 0 0 0 0 0 1 0 0 2 3 2 1 1 0 2 4 6 9 10 10 10 13 15
0 0 0 0 0 0 0 1 1 0 0 0 0 0 1 1 0 0 0 0 0 0 0 0 0 0 0 0 1 5 7 0 0 0 0 0 0 0 1 12 13 7 12
0 0 0 0 0 7 0 0 1 0 0 0 0 0 0 0 0 0 0 0 0 0 0 0 0 0 0 0 1 1 4 0 1 4 4 1 0 0 0 9 4 15 14
0 0 0 0 0 3 5 0 0 0 0 0 0 0 0 0 0 0 0 0 0 0 0 0 0 0 0 0 0 0 0 0 2 2 4 7 13 3 1 1 4 12 12
0 0 0 0 0 0 0 1 0 0 0 0 0 0 0 0 0 0 0 0 0 0 0 0 2 0 0 0 0 0 0 0 1 3 6 6 5 7 3 2 7 22 18
0 0 0 0 0 2 0 0 0 0 0 0 0 0 0 0 0 0 0 0 0 0 0 0 0 0 0 0 0 0 0 1 3 5 4 4 7 10 20 13 12 14 17
0 0 0 0 2 0 0 0 0 0 0 0 0 0 0 0 0 0 0 0 0 0 0 2 2 1 0 0 0 0 0 1 3 5 7 7 9 8 5 8 8 7 7
0 0 1 1 1 0 0 0 0 0 0 0 0 0 0 0 0 0 0 0 0 0 4 9 12 10 11 7 3 1 2 2 4 5 6 8 8 5 8 6 7 8 7
3 3 3 1 1 1 0 1 1 0 0 0 0 0 0 0 0 0 1 1 1 0 7 12 13 17 12 3 2 2 1 1 3 3 6 6 5 8 7 9 7 9 8
2 0 0 0 0 0 0 0 0 0 0 0 0 0 0 0 0 0 0 0 0 0 6 8 12 17 10 1 2 2 3 3 2 3 4 6 7 8 9 7 10 7 7
0 0 0 0 0 0 0 0 1 0 1 0 0 0 0 0 0 1 1 1 7 2 2 9 10 8 3 2 1 1 1 1 2 3 5 7 9 8 6 4 8 7 6
0 0 0 0 0 0 0 0 0 0 0 1 1 0 0 0 0 1 0 5 7 5 2 3 5 3 2 0 2 2 6 3 3 5 5 5 11 6 8 5 8 2 2
0 0 0 0 0 0 0 0 0 0 0 0 0 1 1 1 3 6 7 7 6 7 5 4 4 4 6 4 7 6 6 5 5 5 8 11 12 7 8 4 7 2 3
0 1 0 0 0 0 0 0 0 0 0 2 3 0 0 3 6 6 7 5 4 3 5 3 6 7 4 6 3 6 4 8 5 5 5 6 10 8 5 7 4 6 7
0 0 0 0 0 0 0 0 1 2 3 3 2 0 0 2 4 4 3 2 2 1 1 1 2 2 3 3 4 10 5 6 7 5 6 3 4 6 5 3 7 6 12
0 0 0 0 0 0 0 1 3 4 3 3 2 2 2 3 4 3 2 2 0 0 2 2 4 2 2 5 6 3 4 2 2 3 4 4 3 2 1 1 3 7 7
3 3 2 2 2 2 2 3 2 1 2 2 2 2 3 3 3 3 4 4 2 6 5 4 1 0 1 5 3 2 1 4 1 0 0 2 2 0 0 0 1 5 9
3 2 3 3 3 3 3 3 5 5 5 6 6 6 7 9 2 8 9 8 7 8 7 6 6 5 3 3 2 1 1 0 0 0 1 1 1 0 0 0 0 4 4
3 3 3 4 4 5 6 5 5 5 4 5 5 5 4 3 2 2 2 2 2 3 3 6 9 6 4 4 3 1 0 1 1 0 2 1 1 0 0 0 0 0 0
CIN
-20 -200 -181 -37 -201 -236 -199 -180 -169 -270 -445 0 -634 0 0 0 0 0 0 0 0 0 0 0 0 0 0 0 0 0 0 0 0 0 0 0 0 0 0 0 0 0 0
0 -156 -22 -128 -253 -190 -221 -194 -174 -267 0 0 0 0 0 0 0 0 0 0 0 0 0 0 0 0 0 0 0 0 0 0 0 0 0 0 0 0 0 0 0 0 0
0 0 -76 -8 -56 -97 -197 -217 -291 -225 0 0 0 0 0 0 0 0 0 0 0 0 0 0 0 0 0 0 0 0 0 0 0 0 0 0 0 0 0 0 0 0 0
0 0 -104 -15 -9 -59 -116 -163 0 0 0 0 0 0 0 0 0 0 0 0 0 0 0 0 0 0 0 0 0 0 0 0 0 0 0 0 0 0 0 0 0 0 0
0 0 0 -74 -6 -199 0 0 0 0 0 0 0 0 0 0 0 0 0 0 0 0 0 0 0 0 0 0 0 0 0 0 0 0 0 0 0 0 0 0 0 0 0
0 0 0 -87 -32 -124 0 0 0 0 0 0 0 0 0 0 0 0 0 0 0 0 0 0 0 0 0 0 0 0 0 0 0 0 0 0 0 0 0 0 0 0 0
0 0 0 0 -76 -91 0 0 0 0 0 0 0 0 0 0 0 0 0 0 0 0 0 0 0 0 0 0 0 0 0 0 0 0 0 0 0 0 0 0 0 0 0
0 0 0 0 -183 0 0 0 0 0 0 0 0 0 0 0 0 0 0 0 0 0 0 0 0 0 0 0 0 0 0 0 0 0 0 0 0 0 0 0 0 0 0
0 0 0 0 0 0 0 0 0 0 0 0 0 0 0 0 0 0 0 0 0 0 0 0 0 0 0 0 0 0 0 0 0 0 0 0 0 0 0 0 0 0 0
0 0 0 0 0 0 0 0 0 0 0 0 0 0 0 0 0 0 0 0 0 0 0 0 0 0 0 0 0 0 0 0 0 0 0 0 0 0 0 0 0 0 0
0 0 0 0 0 0 0 0 0 0 0 0 0 0 0 0 0 0 0 0 0 0 0 0 0 0 0 0 0 0 0 0 0 0 0 0 0 0 0 0 0 0 0
0 0 0 0 0 0 0 0 0 0 0 0 0 0 0 0 0 0 0 0 0 0 0 0 0 0 0 0 0 0 0 0 0 0 0 0 0 0 0 0 0 0 0
0 0 0 0 0 -1 0 0 0 0 0 0 0 0 0 0 0 0 0 0 0 0 0 0 0 0 0 0 0 0 0 0 0 0 0 0 0 0 0 0 0 0 -1
0 0 0 0 0 0 0 0 0 0 0 0 0 0 0 0 0 0 0 0 0 0 0 0 0 0 0 0 0 0 0 0 0 0 0 0 0 0 0 0 0 0 0
0 0 0 0 0 0 0 0 0 0 0 0 0 0 0 0 0 0 0 0 0 0 0 0 0 0 0 0 0 0 0 0 0 0 0 0 0 0 0 0 0 0 0
0 0 0 0 0 0 0 0 0 0 0 0 0 0 0 0 0 0 0 0 0 0 0 0 0 0 0 0 0 0 0 0 0 0 0 0 0 0 0 0 0 0 0
0 0 0 0 0 0 0 0 0 0 0 0 0 0 0 0 0 0 0 0 0 0 0 0 0 0 0 0 0 0 0 0 0 0 0 0 0 0 0 0 0 0 0
0 0 0 0 0 0 0 0 0 0 0 0 0 0 0 0 0 0 0 0 0 0 0 0 0 0 0 0 0 0 0 0 0 0 0 0 0 0 0 0 0 0 0
0 0 0 0 0 0 0 0 0 0 0 0 0 0 0 0 0 0 0 0 0 0 0 0 0 0 0 0 0 0 0 0 0 0 0 0 0 0 0 0 0 0 0
0 0 0 0 0 0 0 0 0 0 0 0 0 0 0 0 0 0 0 0 0 0 0 0 0 0 0 0 0 0 0 0 0 0 0 0 0 0 0 0 0 0 0
0 0 0 0 0 0 0 0 0 0 0 0 0 0 0 0 0 0 0 0 0 0 0 0 0 0 0 0 0 0 0 0 0 0 0 0 0 0 0 0 0 0 0
0 0 0 0 0 0 0 0 0 0 0 0 0 0 0 0 0 0 0 0 0 0 0 0 0 0 0 0 0 0 0 0 0 0 0 0 0 0 0 0 0 0 0
0 0 0 0 0 0 0 0 0 0 0 0 0 0 0 0 0 0 0 0 0 0 0 0 0 0 0 0 0 0 0 0 0 0 0 0 0 0 0 0 0 0 0
0 0 0 0 0 0 0 0 0 0 0 0 0 0 0 0 0 0 0 0 0 0 0 0 0 0 0 0 0 0 0 0 0 0 0 0 0 0 0 0 0 0 0
0 0 0 0 0 0 0 0 0 0 0 0 0 0 0 0 0 0 0 0 0 0 0 0 0 0 0 0 0 0 0 0 0 0 0 0 0 0 0 0 0 0 0
0 0 0 0 0 0 0 0 0 0 0 0 0 0 0 0 0 0 0 0 0 0 0 0 0 0 0 0 0 0 0 0 0 0 0 0 0 0 0 0 0 0 0
Wind_Speed
17 16 15 16 19 18 18 18 17 15 12 14 16 15 15 15 14 13 11 14 14 13 10 12 11 8 5 5 5 4 6 3 2 3 2 4 6 8 9 9 10 11 10
16 17 16 16 13 14 15 16 14 13 13 15 14 16 15 15 15 15 16 16 17 16 15 15 12 9 9 5 5 5 6 4 2 3 2 3 6 8 9 11 8 8 11
17 18 18 15 12 13 13 12 8 10 13 12 14 16 16 16 16 16 17 18 17 17 16 15 14 14 11 9 7 6 5 4 4 3 3 3 5 6 9 7 9 10 9
17 18 19 16 12 11 9 8 12 12 14 14 14 14 15 16 17 18 17 19 17 15 16 15 16 13 13 11 8 8 7 6 3 2 4 5 5 6 6 8 10 8 11
17 17 18 19 13 4 7 10 12 13 12 13 14 13 15 16 14 19 18 19 19 17 15 14 13 16 17 12 8 8 9 6 4 3 4 5 4 5 7 7 8 11 12
16 17 17 17 12 5 6 8 8 9 12 12 13 15 16 11 19 23 23 17 18 18 15 12 12 18 15 15 11 11 7 7 5 3 3 4 4 5 6 7 7 10 10
15 16 16 16 13 6 4 3 8 9 10 12 13 14 16 14 25 25 26 17 17 16 15 15 13 8 13 12 12 12 9 6 4 3 4 3 4 6 7 9 10 9 10
16 15 15 14 13 6 8 7 6 8 11 12 13 14 14 14 27 28 27 19 16 17 17 16 14 14 11 12 11 9 7 6 6 5 5 5 4 5 7 7 10 11 9
16 16 15 14 11 7 9 9 9 8 8 10 11 14 15 16 28 29 25 18 16 14 12 14 14 12 16 17 12 8 6 3 3 1 2 3 4 4 6 6 6 8 8
16 16 16 15 14 12 13 13 11 10 7 9 12 13 17 20 27 30 24 13 15 11 12 12 15 13 16 14 11 9 6 4 2 2 2 2 4 5 5 6 7 7 8
15 16 17 16 15 15 14 9 12 13 10 9 11 11 14 20 21 24 23 16 14 15 10 9 8 18 15 13 9 8 5 5 3 1 2 3 3 4 4 6 7 5 6
15 17 18 17 13 10 12 10 11 13 14 14 9 7 10 14 20 22 21 19 19 14 12 8 11 18 15 12 9 10 10 5 3 2 2 3 3 4 6 6 6 6 6
16 18 18 16 15 9 12 12 11 11 11 13 13 11 9 11 12 25 25 24 18 11 9 14 19 17 14 11 13 13 7 4 3 3 2 2 3 4 4 4 4 6 5
16 15 14 13 10 6 7 9 11 12 11 10 11 14 11 12 12 13 14 14 21 15 17 13 12 11 9 9 9 8 6 5 4 3 1 2 3 4 5 5 5 7 6
14 13 12 7 6 5 5 8 10 12 16 18 14 15 17 14 13 20 17 12 11 12 13 10 10 10 10 8 7 7 6 6 5 3 1 3 3 4 5 5 5 6 6
13 9 7 4 1 1 3 5 12 8 13 13 17 16 10 20 28 25 22 23 26 21 11 11 9 9 9 9 9 7 6 6 5 4 2 2 3 3 5 4 4 5 5
9 7 4 1 2 2 3 6 9 10 19 21 22 26 29 29 31 28 27 28 25 17 10 9 8 8 8 8 8 7 6 5 6 4 3 2 2 3 4 4 5 5 6
5 2 1 2 3 3 3 6 8 11 11 10 17 20 27 31 30 29 29 24 12 6 9 9 8 8 8 9 8 7 7 5 5 4 3 2 1 3 3 4 5 5 6
4 4 4 4 5 5 4 5 7 9 10 11 12 16 22 29 28 28 24 11 10 8 8 8 7 8 7 7 6 6 6 5 4 4 3 3 2 3 3 3 4 5 5
5 9 7 5 5 6 5 7 6 8 10 9 11 13 14 18 14 12 8 8 8 7 6 6 7 7 6 7 6 6 6 6 5 4 4 3 2 2 3 2 3 4 4
6 7 9 8 7 7 7 8 7 8 9 9 9 11 14 12 11 10 8 7 6 6 6 6 6 6 6 6 7 7 7 6 6 5 4 4 4 3 3 2 1 2 2
7 7 8 8 8 9 9 9 10 10 10 11 10 11 15 10 9 8 7 6 5 5 5 5 5 6 6 7 7 7 7 7 6 6 5 5 4 3 3 2 1 1 1
10 11 11 10 9 12 11 10 10 9 10 10 9 8 8 8 7 7 6 5 5 4 4 4 5 6 5 5 6 7 7 7 7 6 6 6 5 4 3 3 3 2 1
14 14 13 12 11 11 11 11 10 11 9 8 7 7 7 6 5 5 4 4 4 4 4 4 5 6 6 5 5 5 6 5 6 8 9 7 6 5 4 3 3 3 3
14 14 14 13 13 11 12 11 10 10 9 8 7 7 7 6 5 4 4 3 3 3 4 4 4 5 6 7 6 7 7 7 8 9 8 8 8 8 5 3 3 3 3
15 15 13 12 12 12 11 11 11 11 11 10 9 9 9 8 7 7 6 5 3 3 2 1 2 4 5 5 6 6 8 10 11 13 9 9 9 7 6 5 5 3 3
Wind_Direction
314 297 284 270 259 245 239 236 229 217 189 181 184 185 177 171 169 166 156 146 136 126 121 113 107 105 96 95 81 92 97 96 132 84 347 329 302 317 323 327 330 325 318
318 312 299 284 259 241 239 236 229 207 171 176 186 183 176 168 159 156 148 145 140 138 138 133 125 118 103 98 93 83 90 99 115 163 303 281 278 314 321 326 333 316 319
323 320 312 299 255 237 231 226 201 171 170 180 178 176 168 163 157 155 150 144 148 146 146 140 140 144 140 140 136 139 138 133 178 122 272 259 288 304 328 331 330 319 318
328 322 316 314 277 236 227 178 167 172 177 178 176 171 166 159 154 148 152 143 143 148 151 147 149 151 146 145 156 142 155 168 143 189 262 282 295 327 331 332 331 333 326
329 328 319 315 300 241 178 181 183 180 179 171 162 164 157 156 157 158 155 150 148 146 147 146 147 144 147 154 143 154 177 133 177 204 250 268 305 335 340 336 330 323 329
325 329 327 313 295 267 250 180 180 165 165 165 165 167 163 162 166 158 151 153 148 146 139 139 136 137 141 136 142 137 148 147 169 205 245 281 315 329 337 334 326 332 338
318 325 330 319 299 250 231 185 162 159 156 160 169 166 165 164 161 156 147 148 146 144 141 139 140 147 149 141 134 140 142 168 211 215 254 292 310 339 333 336 322 327 319
310 317 320 319 300 235 203 191 162 161 168 167 171 174 167 163 158 152 145 144 143 145 146 148 148 154 147 144 145 138 152 175 193 192 247 286 297 336 334 328 316 315 303
302 307 310 310 290 225 204 196 169 162 177 178 170 167 161 157 157 149 142 146 143 140 139 141 144 140 149 147 135 138 145 160 163 202 263 287 329 10 7 319 331 336 331
302 300 302 295 290 239 209 192 177 169 187 177 170 169 164 162 163 153 144 142 135 134 134 131 137 137 145 138 144 145 146 152 114 17 43 27 353 30 11 343 336 333 333
296 295 294 289 280 261 228 197 162 167 151 189 167 167 165 163 162 148 147 144 143 138 138 136 135 136 137 148 141 144 134 130 114 77 27 37 11 3 354 341 349 332 312
294 294 289 287 283 255 205 188 185 170 169 141 168 147 153 155 152 134 135 127 134 136 138 130 131 140 150 152 148 135 125 123 114 82 58 27 348 359 350 344 335 314 301
294 291 289 295 284 240 201 180 171 175 164 162 151 149 155 139 138 131 123 123 123 118 126 129 137 147 151 144 138 128 130 125 120 96 58 9 355 341 324 340 343 330 319
289 285 288 290 277 217 191 183 169 170 165 155 162 148 147 151 146 137 133 124 120 120 125 131 141 133 132 126 129 128 126 125 113 113 112 20 2 5 14 3 344 352 345
289 285 287 276 236 209 192 185 181 187 173 166 174 152 160 157 156 138 135 132 132 126 128 134 136 142 147 148 138 133 130 127 124 135 97 40 26 14 17 8 354 351 348
293 289 278 245 261 57 130 75 49 99 106 109 140 143 129 129 128 128 129 126 123 136 141 147 150 153 157 152 144 142 134 135 132 139 117 60 34 27 17 12 359 3 348
282 282 269 264 65 74 115 125 117 83 105 116 125 129 138 142 134 133 128 127 137 143 142 145 152 157 152 150 148 148 145 139 140 139 127 85 39 50 28 12 5 8 355
297 312 261 71 86 87 95 122 127 128 131 124 131 133 135 129 127 129 126 128 139 135 142 150 150 154 155 153 152 149 140 145 146 144 136 133 91 57 41 12 11 7 352
352 6 31 59 67 76 90 100 104 126 128 130 126 117 120 120 124 124 132 137 145 144 149 149 152 158 160 154 149 145 143 151 144 156 153 182 146 82 60 12 11 8 358
33 39 54 59 66 76 81 84 108 114 120 125 122 125 126 123 129 131 127 131 130 133 142 155 164 162 156 159 150 146 141 150 161 176 180 201 184 138 95 48 20 358 19
40 45 54 58 59 65 75 86 90 95 95 97 107 119 126 124 125 120 125 129 137 144 154 167 166 161 159 156 156 157 160 164 173 177 193 201 197 180 145 116 31 340 11
40 44 49 55 61 66 70 74 77 81 90 99 100 96 105 111 115 121 135 146 143 152 161 161 164 168 171 169 166 165 173 176 177 183 191 199 199 186 182 169 191 266 37
48 50 51 52 55 60 60 65 76 81 88 90 91 99 101 103 110 125 135 137 164 162 161 161 161 172 176 173 177 175 176 186 184 182 183 188 194 183 182 197 196 211 235
44 46 49 50 48 52 54 57 63 66 76 79 80 80 86 96 109 125 133 142 161 156 155 167 180 176 172 174 188 194 202 186 170 183 180 183 184 173 187 194 203 199 215
42 41 43 44 42 44 49 49 51 54 59 63 68 71 75 77 84 92 104 122 144 156 177 176 184 189 190 191 195 202 206 197 184 180 181 181 180 180 183 187 192 200 224
40 42 42 41 40 41 43 46 45 43 44 44 45 48 50 53 51 50 45 50 62 78 88 129 173 184 189 207 217 217 212 207 201 190 185 183 178 182 182 184 182 197 195